CDF65N EFHK-ESSV

Flight info

Callsign CDF65N
Flight time 0h 53m
Altitude 34000
Route NUNTO Y369 REKDO DCT KOSKA DCT GOTAL
Aircraft A21N/M-SDE2E3FGHIRWXY/LB1

Departure

Time 2026-05-06 16:41
Airport Helsinki Vantaa Airport (EFHK)

Arrival

Time 2026-05-06 17:35
Airport Visby Airport (ESSV)
Time Latitude Longitude Altitude Speed Heading
2026-05-06 15:57 60.32013 24.96846 172 ft 0 kts 193°
2026-05-06 16:32 60.32024 24.96852 172 ft 4 kts 192°
2026-05-06 16:32 60.32050 24.96866 172 ft 4 kts 204°
2026-05-06 16:32 60.32066 24.96892 172 ft 4 kts 263°
2026-05-06 16:32 60.32065 24.96939 172 ft 4 kts 303°
2026-05-06 16:33 60.32046 24.96968 172 ft 4 kts 336°
2026-05-06 16:33 60.32037 24.96976 172 ft 2 kts 333°
2026-05-06 16:35 60.32057 24.96955 172 ft 3 kts 330°
2026-05-06 16:35 60.32078 24.96931 172 ft 4 kts 330°
2026-05-06 16:36 60.32110 24.96895 172 ft 6 kts 330°
2026-05-06 16:36 60.32152 24.96844 172 ft 8 kts 328°
2026-05-06 16:36 60.32205 24.96782 171 ft 9 kts 330°
2026-05-06 16:36 60.32268 24.96709 172 ft 12 kts 330°
2026-05-06 16:37 60.32348 24.96616 177 ft 15 kts 330°
2026-05-06 16:37 60.32447 24.96503 180 ft 17 kts 330°
2026-05-06 16:37 60.32551 24.96379 179 ft 18 kts 330°
2026-05-06 16:37 60.32664 24.96247 177 ft 19 kts 329°
2026-05-06 16:38 60.32784 24.96107 178 ft 21 kts 330°
2026-05-06 16:38 60.32913 24.95958 181 ft 22 kts 329°
2026-05-06 16:38 60.33049 24.95798 186 ft 22 kts 329°
2026-05-06 16:38 60.33149 24.95627 184 ft 17 kts 317°
2026-05-06 16:39 60.33210 24.95461 184 ft 14 kts 274°
2026-05-06 16:39 60.33161 24.95287 184 ft 15 kts 228°
2026-05-06 16:39 60.33109 24.95099 183 ft 17 kts 266°
2026-05-06 16:39 60.33113 24.94861 181 ft 18 kts 272°
2026-05-06 16:40 60.33118 24.94605 191 ft 12 kts 272°
2026-05-06 16:40 60.33124 24.94443 201 ft 10 kts 262°
2026-05-06 16:40 60.33094 24.94345 199 ft 6 kts 227°
2026-05-06 16:40 60.33040 24.94226 193 ft 31 kts 227°
2026-05-06 16:41 60.32730 24.93543 189 ft 98 kts 227°
2026-05-06 16:41 60.32368 24.92748 176 ft 134 kts 227°
2026-05-06 16:41 60.31684 24.91249 529 ft 142 kts 227°
2026-05-06 16:41 60.30731 24.89319 1212 ft 152 kts 227°
2026-05-06 16:42 60.30171 24.87486 1684 ft 161 kts 257°
2026-05-06 16:42 60.30197 24.85098 1971 ft 181 kts 278°
2026-05-06 16:42 60.30273 24.82446 2549 ft 198 kts 271°
2026-05-06 16:42 60.30316 24.79550 3145 ft 218 kts 272°
2026-05-06 16:43 60.30276 24.77460 3523 ft 233 kts 262°
2026-05-06 16:43 60.29756 24.74208 4114 ft 253 kts 248°
2026-05-06 16:43 60.29052 24.70914 4995 ft 258 kts 248°
2026-05-06 16:43 60.28339 24.67565 5940 ft 261 kts 248°
2026-05-06 16:44 60.27628 24.64169 6856 ft 264 kts 249°
2026-05-06 16:44 60.26683 24.59627 8081 ft 267 kts 248°
2026-05-06 16:44 60.26199 24.57281 8717 ft 270 kts 249°
2026-05-06 16:44 60.25477 24.53771 9673 ft 272 kts 249°
2026-05-06 16:45 60.24507 24.49097 10883 ft 274 kts 248°
2026-05-06 16:45 60.23952 24.46795 11409 ft 281 kts 245°
2026-05-06 16:45 60.22993 24.43195 11783 ft 302 kts 244°
2026-05-06 16:45 60.21951 24.39347 12108 ft 323 kts 244°
2026-05-06 16:46 60.20861 24.35307 12735 ft 333 kts 244°
2026-05-06 16:46 60.19754 24.31203 13574 ft 335 kts 244°
2026-05-06 16:46 60.18638 24.27072 14372 ft 337 kts 244°
2026-05-06 16:46 60.17517 24.22930 15166 ft 338 kts 244°
2026-05-06 16:47 60.16394 24.18790 15947 ft 338 kts 244°
2026-05-06 16:47 60.15266 24.14630 16698 ft 340 kts 244°
2026-05-06 16:47 60.14129 24.10458 17441 ft 341 kts 243°
2026-05-06 16:47 60.13003 24.06333 18162 ft 342 kts 243°
2026-05-06 16:48 60.11859 24.02138 18780 ft 344 kts 243°
2026-05-06 16:48 60.10708 23.97934 19387 ft 345 kts 243°
2026-05-06 16:48 60.09552 23.93720 19993 ft 346 kts 243°
2026-05-06 16:48 60.08395 23.89490 20627 ft 347 kts 243°
2026-05-06 16:49 60.07272 23.85214 21233 ft 347 kts 244°
2026-05-06 16:49 60.06149 23.80917 21768 ft 349 kts 243°
2026-05-06 16:49 60.05016 23.76592 22307 ft 352 kts 243°
2026-05-06 16:49 60.03888 23.72292 22867 ft 355 kts 243°
2026-05-06 16:50 60.02737 23.67919 23454 ft 357 kts 243°
2026-05-06 16:50 60.01578 23.63521 23964 ft 358 kts 243°
2026-05-06 16:50 60.00412 23.59106 24451 ft 360 kts 243°
2026-05-06 16:50 59.99236 23.54678 24928 ft 362 kts 243°
2026-05-06 16:51 59.98053 23.50230 25402 ft 364 kts 242°
2026-05-06 16:51 59.96865 23.45760 25869 ft 365 kts 242°
2026-05-06 16:51 59.95672 23.41276 26327 ft 367 kts 242°
2026-05-06 16:51 59.94484 23.36821 26763 ft 369 kts 242°
2026-05-06 16:52 59.93277 23.32303 27199 ft 371 kts 242°
2026-05-06 16:52 59.92062 23.27761 27629 ft 372 kts 242°
2026-05-06 16:52 59.90838 23.23200 28046 ft 374 kts 242°
2026-05-06 16:52 59.89606 23.18617 28450 ft 376 kts 242°
2026-05-06 16:53 59.88372 23.14023 28843 ft 378 kts 242°
2026-05-06 16:53 59.87127 23.09400 29160 ft 380 kts 242°
2026-05-06 16:53 59.85878 23.04775 29651 ft 379 kts 241°
2026-05-06 16:53 59.84631 23.00169 30164 ft 377 kts 241°
2026-05-06 16:54 59.83390 22.95599 30602 ft 375 kts 241°
2026-05-06 16:54 59.82172 22.91116 31095 ft 373 kts 240°
2026-05-06 16:54 59.80939 22.86593 31533 ft 371 kts 240°
2026-05-06 16:54 59.79713 22.82107 31957 ft 369 kts 240°
2026-05-06 16:55 59.78492 22.77644 32376 ft 367 kts 240°
2026-05-06 16:55 59.77273 22.73198 32784 ft 366 kts 240°
2026-05-06 16:55 59.76061 22.68780 33175 ft 364 kts 240°
2026-05-06 16:55 59.74850 22.64385 33555 ft 362 kts 240°
2026-05-06 16:56 59.73640 22.60005 33911 ft 361 kts 240°
2026-05-06 16:56 59.72429 22.55624 34056 ft 364 kts 240°
2026-05-06 16:56 59.71230 22.51289 34061 ft 364 kts 240°
2026-05-06 16:57 59.68794 22.42512 34037 ft 364 kts 240°
2026-05-06 16:57 59.66350 22.33743 34030 ft 364 kts 239°
2026-05-06 16:58 59.63903 22.24994 34029 ft 364 kts 239°
2026-05-06 16:58 59.61464 22.16313 34029 ft 364 kts 239°
2026-05-06 16:59 59.59004 22.07594 34029 ft 364 kts 239°
2026-05-06 16:59 59.56540 21.98884 34068 ft 364 kts 239°
2026-05-06 17:00 59.54075 21.90206 34039 ft 362 kts 239°
2026-05-06 17:00 59.51622 21.81611 34043 ft 362 kts 239°
2026-05-06 17:01 59.49135 21.72926 34021 ft 366 kts 238°
2026-05-06 17:01 59.46630 21.64202 34029 ft 367 kts 238°
2026-05-06 17:02 59.44116 21.55480 34032 ft 367 kts 238°
2026-05-06 17:02 59.41596 21.46766 34029 ft 367 kts 238°
2026-05-06 17:03 59.39090 21.38129 34033 ft 367 kts 238°
2026-05-06 17:03 59.36553 21.29420 34030 ft 368 kts 238°
2026-05-06 17:04 59.34013 21.20729 34024 ft 368 kts 238°
2026-05-06 17:04 59.31462 21.12047 34001 ft 370 kts 237°
2026-05-06 17:05 59.28900 21.03356 34056 ft 371 kts 238°
2026-05-06 17:05 59.26323 20.94632 34031 ft 370 kts 238°
2026-05-06 17:06 59.23738 20.85925 34026 ft 370 kts 238°
2026-05-06 17:06 59.21148 20.77238 34024 ft 370 kts 237°
2026-05-06 17:07 59.18536 20.68578 34026 ft 369 kts 236°
2026-05-06 17:07 59.15476 20.60647 34024 ft 369 kts 231°
2026-05-06 17:08 59.12278 20.52838 34024 ft 369 kts 231°
2026-05-06 17:08 59.09059 20.44962 34013 ft 373 kts 230°
2026-05-06 17:09 59.05833 20.37066 34021 ft 373 kts 230°
2026-05-06 17:09 59.02617 20.29234 34022 ft 373 kts 230°
2026-05-06 17:10 58.99372 20.21364 34022 ft 373 kts 230°
2026-05-06 17:10 58.96133 20.13523 34023 ft 373 kts 230°
2026-05-06 17:11 58.92884 20.05683 34062 ft 373 kts 230°
2026-05-06 17:11 58.89637 19.97878 33990 ft 375 kts 229°
2026-05-06 17:12 58.86381 19.90061 34010 ft 374 kts 229°
2026-05-06 17:12 58.83154 19.82338 33710 ft 363 kts 229°
2026-05-06 17:12 58.81574 19.78567 33166 ft 360 kts 229°
2026-05-06 17:13 58.80001 19.74823 32600 ft 359 kts 230°
2026-05-06 17:13 58.78427 19.71088 31985 ft 359 kts 230°
2026-05-06 17:13 58.76746 19.67431 31500 ft 374 kts 223°
2026-05-06 17:13 58.74628 19.64434 31194 ft 381 kts 212°
2026-05-06 17:14 58.72323 19.62020 30931 ft 382 kts 210°
2026-05-06 17:14 58.69965 19.59652 30675 ft 380 kts 210°
2026-05-06 17:14 58.67638 19.57302 29893 ft 380 kts 210°
2026-05-06 17:14 58.65277 19.54894 28696 ft 388 kts 211°
2026-05-06 17:15 58.62875 19.52434 27520 ft 395 kts 211°
2026-05-06 17:15 58.60452 19.49953 26737 ft 394 kts 211°
2026-05-06 17:15 58.58041 19.47487 26035 ft 391 kts 211°
2026-05-06 17:15 58.55652 19.45045 25356 ft 388 kts 211°
2026-05-06 17:16 58.53278 19.42623 24687 ft 385 kts 211°
2026-05-06 17:16 58.50925 19.40226 24031 ft 382 kts 211°
2026-05-06 17:16 58.48583 19.37844 23334 ft 380 kts 212°
2026-05-06 17:16 58.46288 19.35514 22589 ft 377 kts 211°
2026-05-06 17:17 58.43976 19.33169 21883 ft 375 kts 211°
2026-05-06 17:17 58.41685 19.30847 21170 ft 372 kts 211°
2026-05-06 17:17 58.39401 19.28535 20465 ft 371 kts 211°
2026-05-06 17:17 58.37131 19.26241 19818 ft 368 kts 211°
2026-05-06 17:18 58.34880 19.23972 19242 ft 364 kts 211°
2026-05-06 17:18 58.32654 19.21732 18735 ft 359 kts 211°
2026-05-06 17:18 58.30465 19.19532 18268 ft 353 kts 211°
2026-05-06 17:18 58.28310 19.17368 17767 ft 347 kts 211°
2026-05-06 17:19 58.26196 19.15247 17294 ft 341 kts 211°
2026-05-06 17:19 58.24140 19.13190 16826 ft 337 kts 211°
2026-05-06 17:19 58.22061 19.11110 16389 ft 337 kts 210°
2026-05-06 17:19 58.19986 19.09035 15972 ft 337 kts 210°
2026-05-06 17:20 58.17915 19.06966 15560 ft 336 kts 210°
2026-05-06 17:20 58.15846 19.04904 15145 ft 336 kts 210°
2026-05-06 17:20 58.13772 19.02840 14750 ft 335 kts 210°
2026-05-06 17:20 58.11710 19.00788 14341 ft 335 kts 210°
2026-05-06 17:21 58.09642 18.98735 13940 ft 336 kts 210°
2026-05-06 17:21 58.07598 18.96709 13499 ft 336 kts 209°
2026-05-06 17:21 58.05526 18.94661 13055 ft 336 kts 209°
2026-05-06 17:21 58.03457 18.92616 12656 ft 335 kts 209°
2026-05-06 17:22 58.01393 18.90578 12257 ft 334 kts 209°
2026-05-06 17:22 57.99331 18.88544 11849 ft 334 kts 208°
2026-05-06 17:22 57.97277 18.86522 11445 ft 334 kts 208°
2026-05-06 17:22 57.95219 18.84498 11038 ft 333 kts 209°
2026-05-06 17:23 57.93184 18.82498 10736 ft 325 kts 208°
2026-05-06 17:23 57.91212 18.80567 10544 ft 314 kts 208°
2026-05-06 17:23 57.89335 18.78729 10389 ft 303 kts 208°
2026-05-06 17:23 57.87501 18.76933 10245 ft 291 kts 208°
2026-05-06 17:24 57.85721 18.75193 10012 ft 288 kts 208°
2026-05-06 17:24 57.83958 18.73472 9634 ft 287 kts 208°
2026-05-06 17:24 57.82178 18.71735 9159 ft 288 kts 207°
2026-05-06 17:24 57.80412 18.70014 8793 ft 285 kts 207°
2026-05-06 17:25 57.78652 18.68302 8464 ft 285 kts 207°
2026-05-06 17:25 57.76897 18.66596 8171 ft 284 kts 207°
2026-05-06 17:25 57.75149 18.64899 7869 ft 283 kts 207°
2026-05-06 17:25 57.73402 18.63204 7574 ft 282 kts 207°
2026-05-06 17:26 57.71685 18.61542 7277 ft 282 kts 207°
2026-05-06 17:26 57.69942 18.59856 6961 ft 282 kts 206°
2026-05-06 17:26 57.68200 18.58172 6642 ft 281 kts 206°
2026-05-06 17:26 57.66470 18.56500 6345 ft 280 kts 205°
2026-05-06 17:27 57.64741 18.54833 5998 ft 280 kts 206°
2026-05-06 17:27 57.63006 18.53162 5664 ft 280 kts 206°
2026-05-06 17:27 57.61287 18.51508 5350 ft 276 kts 205°
2026-05-06 17:27 57.59586 18.49874 5051 ft 274 kts 206°
2026-05-06 17:28 57.57947 18.48298 4941 ft 262 kts 205°
2026-05-06 17:28 57.56348 18.46762 4721 ft 258 kts 205°
2026-05-06 17:28 57.54731 18.45214 4189 ft 264 kts 205°
2026-05-06 17:28 57.53088 18.43642 3820 ft 267 kts 205°
2026-05-06 17:29 57.51434 18.42063 3495 ft 267 kts 205°
2026-05-06 17:29 57.49782 18.40484 3201 ft 266 kts 205°
2026-05-06 17:29 57.48165 18.38921 2993 ft 259 kts 207°
2026-05-06 17:29 57.46809 18.36834 2827 ft 251 kts 233°
2026-05-06 17:30 57.46155 18.33967 2628 ft 242 kts 264°
2026-05-06 17:30 57.46371 18.30950 2465 ft 237 kts 291°
2026-05-06 17:30 57.46970 18.28098 2539 ft 236 kts 294°
2026-05-06 17:30 57.47692 18.25377 2499 ft 232 kts 310°
2026-05-06 17:31 57.48910 18.23547 2390 ft 225 kts 341°
2026-05-06 17:31 57.50418 18.23183 2234 ft 218 kts 12°
2026-05-06 17:31 57.51848 18.24056 2147 ft 217 kts 26°
2026-05-06 17:31 57.53175 18.25152 2144 ft 200 kts 26°
2026-05-06 17:32 57.54394 18.26122 2197 ft 179 kts 25°
2026-05-06 17:32 57.55531 18.26985 2197 ft 175 kts 25°
2026-05-06 17:32 57.56651 18.27796 2068 ft 175 kts 24°
2026-05-06 17:32 57.57768 18.28592 1807 ft 168 kts 25°
2026-05-06 17:33 57.58827 18.29343 1565 ft 157 kts 25°
2026-05-06 17:33 57.59818 18.30017 1350 ft 149 kts 25°
2026-05-06 17:33 57.60732 18.30668 1181 ft 133 kts 25°
2026-05-06 17:33 57.61590 18.31283 974 ft 132 kts 24°
2026-05-06 17:34 57.62457 18.31856 837 ft 132 kts 25°
2026-05-06 17:34 57.63306 18.32491 654 ft 131 kts 26°
2026-05-06 17:34 57.64158 18.33105 437 ft 131 kts 24°
2026-05-06 17:34 57.65011 18.33711 291 ft 131 kts 24°
2026-05-06 17:35 57.65846 18.34309 157 ft 121 kts 24°
2026-05-06 17:35 57.66428 18.34725 151 ft 49 kts 21°
2026-05-06 17:35 57.66569 18.34850 149 ft 11 kts 24°
2026-05-06 17:36 57.66528 18.34789 151 ft 13 kts 198°
2026-05-06 17:36 57.66417 18.34713 152 ft 20 kts 201°
2026-05-06 17:36 57.66271 18.34607 154 ft 24 kts 201°
2026-05-06 17:36 57.66112 18.34490 155 ft 25 kts 201°
2026-05-06 17:37 57.65977 18.34372 153 ft 17 kts 241°
2026-05-06 17:37 57.65993 18.34182 152 ft 15 kts 292°
2026-05-06 17:37 57.66024 18.34032 150 ft 9 kts 290°
2026-05-06 17:37 57.66052 18.33959 151 ft 4 kts 334°
2026-05-06 17:38 57.66059 18.33953 151 ft 0 kts 333°